Time,TemperatureF,DewpointF,PressureIn,WindDirection,WindDirectionDegrees,WindSpeedMPH,WindSpeedGustMPH,Humidity,HourlyPrecipIn,Conditions,Clouds,dailyrainin,SoftwareType,DateUTC
2013-03-15 00:00:00,39.9,32.9,30.10,North,0,0.0,0.0,76,0.00,,,0.00,WUHU21623XXSP,2013-03-15 05:00:00,
2013-03-15 00:05:00,39.7,33.1,30.10,North,0,0.0,0.0,77,0.00,,,0.00,WUHU21623XXSP,2013-03-15 05:05:00,
2013-03-15 00:10:00,39.6,32.9,30.10,North,0,0.0,0.0,77,0.00,,,0.00,WUHU21623XXSP,2013-03-15 05:10:00,
2013-03-15 00:15:00,39.4,32.8,30.10,North,0,0.0,0.0,77,0.00,,,0.00,WUHU21623XXSP,2013-03-15 05:15:00,
2013-03-15 00:20:00,39.0,32.4,30.09,North,0,0.0,0.0,77,0.00,,,0.00,WUHU21623XXSP,2013-03-15 05:20:00,
2013-03-15 00:25:00,39.0,32.4,30.09,North,0,0.0,0.0,77,0.00,,,0.00,WUHU21623XXSP,2013-03-15 05:25:00,
2013-03-15 00:30:00,38.8,32.4,30.10,North,0,0.0,0.0,78,0.00,,,0.00,WUHU21623XXSP,2013-03-15 05:30:00,
2013-03-15 00:35:00,38.8,32.6,30.09,North,0,0.0,0.0,78,0.00,,,0.00,WUHU21623XXSP,2013-03-15 05:35:00,
2013-03-15 00:40:00,38.8,32.6,30.09,North,0,0.0,0.0,78,0.00,,,0.00,WUHU21623XXSP,2013-03-15 05:40:00,
2013-03-15 00:45:00,38.5,32.2,30.09,North,0,0.0,0.0,78,0.00,,,0.00,WUHU21623XXSP,2013-03-15 05:45:00,
2013-03-15 00:50:00,38.5,32.2,30.09,North,0,0.0,0.0,78,0.00,,,0.00,WUHU21623XXSP,2013-03-15 05:50:00,
2013-03-15 00:55:00,38.3,32.1,30.09,North,0,0.0,0.0,78,0.00,,,0.00,WUHU21623XXSP,2013-03-15 05:55:00,
2013-03-15 01:00:00,38.1,31.9,30.08,North,0,0.0,0.0,78,0.00,,,0.00,WUHU21623XXSP,2013-03-15 06:00:00,
2013-03-15 01:05:00,37.9,31.7,30.08,North,0,0.0,0.0,78,0.00,,,0.00,WUHU21623XXSP,2013-03-15 06:05:00,
2013-03-15 01:10:00,37.8,31.5,30.08,North,0,0.0,0.0,78,0.00,,,0.00,WUHU21623XXSP,2013-03-15 06:10:00,
2013-03-15 01:15:00,37.6,31.3,30.07,North,0,0.0,0.0,78,0.00,,,0.00,WUHU21623XXSP,2013-03-15 06:15:00,
2013-03-15 01:20:00,37.2,31.0,30.07,North,0,0.0,0.0,78,0.00,,,0.00,WUHU21623XXSP,2013-03-15 06:20:00,
2013-03-15 01:25:00,37.2,31.3,30.07,North,0,0.0,0.0,79,0.00,,,0.00,WUHU21623XXSP,2013-03-15 06:25:00,
2013-03-15 01:30:00,37.0,31.1,30.07,North,0,0.0,0.0,79,0.00,,,0.00,WUHU21623XXSP,2013-03-15 06:30:00,
2013-03-15 01:36:00,37.0,31.5,30.06,North,0,0.0,0.0,80,0.00,,,0.00,WUHU21623XXSP,2013-03-15 06:36:00,
2013-03-15 01:41:00,36.9,31.3,30.06,North,0,0.0,0.0,80,0.00,,,0.00,WUHU21623XXSP,2013-03-15 06:41:00,
2013-03-15 01:46:00,36.7,31.1,30.06,North,0,0.0,0.0,80,0.00,,,0.00,WUHU21623XXSP,2013-03-15 06:46:00,
2013-03-15 01:51:00,36.5,30.6,30.06,North,0,0.0,0.0,79,0.00,,,0.00,WUHU21623XXSP,2013-03-15 06:51:00,
2013-03-15 01:56:00,36.3,30.4,30.05,North,0,0.0,0.0,79,0.00,,,0.00,WUHU21623XXSP,2013-03-15 06:56:00,
2013-03-15 02:01:00,36.3,30.4,30.05,North,0,0.0,0.0,79,0.00,,,0.00,WUHU21623XXSP,2013-03-15 07:01:00,
2013-03-15 02:06:00,36.1,30.6,30.05,North,0,0.0,0.0,80,0.00,,,0.00,WUHU21623XXSP,2013-03-15 07:06:00,
2013-03-15 02:11:00,36.0,30.4,30.06,North,0,0.0,0.0,80,0.00,,,0.00,WUHU21623XXSP,2013-03-15 07:11:00,
2013-03-15 02:16:00,35.8,30.2,30.06,North,0,0.0,0.0,80,0.00,,,0.00,WUHU21623XXSP,2013-03-15 07:16:00,
2013-03-15 02:21:00,35.6,30.0,30.05,North,0,0.0,0.0,80,0.00,,,0.00,WUHU21623XXSP,2013-03-15 07:21:00,
2013-03-15 02:26:00,35.4,29.8,30.05,North,0,0.0,0.0,80,0.00,,,0.00,WUHU21623XXSP,2013-03-15 07:26:00,
2013-03-15 02:31:00,35.4,29.8,30.05,North,0,0.0,0.0,80,0.00,,,0.00,WUHU21623XXSP,2013-03-15 07:31:00,
2013-03-15 02:36:00,35.2,29.9,30.04,North,0,0.0,0.0,81,0.00,,,0.00,WUHU21623XXSP,2013-03-15 07:36:00,
2013-03-15 02:41:00,35.2,29.9,30.05,North,0,0.0,0.0,81,0.00,,,0.00,WUHU21623XXSP,2013-03-15 07:41:00,
2013-03-15 02:46:00,34.9,29.6,30.04,North,0,0.0,0.0,81,0.00,,,0.00,WUHU21623XXSP,2013-03-15 07:46:00,
2013-03-15 02:51:00,34.7,29.4,30.04,North,0,0.0,0.0,81,0.00,,,0.00,WUHU21623XXSP,2013-03-15 07:51:00,
2013-03-15 02:56:00,34.7,29.4,30.03,North,0,0.0,0.0,81,0.00,,,0.00,WUHU21623XXSP,2013-03-15 07:56:00,
2013-03-15 03:01:00,34.3,29.3,30.03,North,0,0.0,0.0,82,0.00,,,0.00,WUHU21623XXSP,2013-03-15 08:01:00,
2013-03-15 03:06:00,34.3,29.3,30.02,North,0,0.0,0.0,82,0.00,,,0.00,WUHU21623XXSP,2013-03-15 08:06:00,
2013-03-15 03:11:00,34.3,29.3,30.02,North,0,0.0,0.0,82,0.00,,,0.00,WUHU21623XXSP,2013-03-15 08:11:00,
2013-03-15 03:16:00,34.3,29.6,30.02,North,0,0.0,0.0,83,0.00,,,0.00,WUHU21623XXSP,2013-03-15 08:16:00,
2013-03-15 03:21:00,34.3,29.6,30.02,North,0,0.0,0.0,83,0.00,,,0.00,WUHU21623XXSP,2013-03-15 08:21:00,
2013-03-15 03:26:00,34.2,29.4,30.02,North,0,0.0,0.0,83,0.00,,,0.00,WUHU21623XXSP,2013-03-15 08:26:00,
2013-03-15 03:31:00,34.0,29.3,30.02,North,0,0.0,0.0,83,0.00,,,0.00,WUHU21623XXSP,2013-03-15 08:31:00,
2013-03-15 03:36:00,34.0,29.3,30.02,North,0,0.0,0.0,83,0.00,,,0.00,WUHU21623XXSP,2013-03-15 08:36:00,
2013-03-15 03:41:00,33.8,29.1,30.02,North,0,0.0,0.0,83,0.00,,,0.00,WUHU21623XXSP,2013-03-15 08:41:00,
2013-03-15 03:46:00,33.6,28.9,30.01,North,0,0.0,0.0,83,0.00,,,0.00,WUHU21623XXSP,2013-03-15 08:46:00,
2013-03-15 03:51:00,33.6,28.9,30.01,North,0,0.0,0.0,83,0.00,,,0.00,WUHU21623XXSP,2013-03-15 08:51:00,
2013-03-15 03:56:00,33.4,28.8,30.01,North,0,0.0,0.0,83,0.00,,,0.00,WUHU21623XXSP,2013-03-15 08:56:00,
2013-03-15 04:01:00,33.4,28.8,30.01,North,0,0.0,0.0,83,0.00,,,0.00,WUHU21623XXSP,2013-03-15 09:01:00,
2013-03-15 04:07:00,33.3,28.6,30.01,North,0,0.0,0.0,83,0.00,,,0.00,WUHU21623XXSP,2013-03-15 09:07:00,
2013-03-15 04:12:00,33.3,28.6,30.01,North,0,0.0,0.0,83,0.00,,,0.00,WUHU21623XXSP,2013-03-15 09:12:00,
2013-03-15 04:17:00,33.1,28.4,30.00,North,0,0.0,0.0,83,0.00,,,0.00,WUHU21623XXSP,2013-03-15 09:17:00,
2013-03-15 04:22:00,33.1,28.7,30.00,North,0,0.0,0.0,84,0.00,,,0.00,WUHU21623XXSP,2013-03-15 09:22:00,
2013-03-15 04:27:00,33.1,28.7,29.99,North,0,0.0,0.0,84,0.00,,,0.00,WUHU21623XXSP,2013-03-15 09:27:00,
2013-03-15 04:32:00,33.1,28.7,30.00,North,0,0.0,0.0,84,0.00,,,0.00,WUHU21623XXSP,2013-03-15 09:32:00,
2013-03-15 04:37:00,32.9,28.6,30.00,North,0,0.0,0.0,84,0.00,,,0.00,WUHU21623XXSP,2013-03-15 09:37:00,
2013-03-15 04:42:00,32.9,28.6,30.00,North,0,0.0,0.0,84,0.00,,,0.00,WUHU21623XXSP,2013-03-15 09:42:00,
2013-03-15 04:47:00,32.9,28.6,30.00,North,0,0.0,0.0,84,0.00,,,0.00,WUHU21623XXSP,2013-03-15 09:47:00,
2013-03-15 04:52:00,32.7,28.4,30.00,North,0,0.0,0.0,84,0.00,,,0.00,WUHU21623XXSP,2013-03-15 09:52:00,
2013-03-15 04:57:00,32.7,28.4,30.00,North,0,0.0,0.0,84,0.00,,,0.00,WUHU21623XXSP,2013-03-15 09:57:00,
2013-03-15 05:02:00,32.7,28.4,30.00,North,0,0.0,0.0,84,0.00,,,0.00,WUHU21623XXSP,2013-03-15 10:02:00,
2013-03-15 05:07:00,32.7,28.4,30.00,North,0,0.0,0.0,84,0.00,,,0.00,WUHU21623XXSP,2013-03-15 10:07:00,
2013-03-15 05:12:00,32.7,28.4,30.00,North,0,0.0,0.0,84,0.00,,,0.00,WUHU21623XXSP,2013-03-15 10:12:00,
2013-03-15 05:17:00,32.7,28.4,29.99,North,0,0.0,0.0,84,0.00,,,0.00,WUHU21623XXSP,2013-03-15 10:17:00,
2013-03-15 05:22:00,32.5,28.2,29.99,North,0,0.0,0.0,84,0.00,,,0.00,WUHU21623XXSP,2013-03-15 10:22:00,
2013-03-15 05:27:00,32.5,28.2,29.99,North,0,0.0,0.0,84,0.00,,,0.00,WUHU21623XXSP,2013-03-15 10:27:00,
2013-03-15 05:32:00,32.5,28.5,29.99,North,0,0.0,0.0,85,0.00,,,0.00,WUHU21623XXSP,2013-03-15 10:32:00,
2013-03-15 05:37:00,32.5,28.5,29.99,North,0,0.0,0.0,85,0.00,,,0.00,WUHU21623XXSP,2013-03-15 10:37:00,
2013-03-15 05:42:00,32.4,28.4,29.99,North,0,0.0,0.0,85,0.00,,,0.00,WUHU21623XXSP,2013-03-15 10:42:00,
2013-03-15 05:47:00,32.4,28.4,29.98,North,0,0.0,0.0,85,0.00,,,0.00,WUHU21623XXSP,2013-03-15 10:47:00,
2013-03-15 05:52:00,32.4,28.4,29.98,North,0,0.0,0.0,85,0.00,,,0.00,WUHU21623XXSP,2013-03-15 10:52:00,
2013-03-15 05:57:00,32.2,28.2,29.99,North,0,0.0,0.0,85,0.00,,,0.00,WUHU21623XXSP,2013-03-15 10:57:00,
2013-03-15 06:02:00,32.2,28.2,29.99,North,0,0.0,0.0,85,0.00,,,0.00,WUHU21623XXSP,2013-03-15 11:02:00,
2013-03-15 06:07:00,32.2,28.2,29.99,North,0,0.0,0.0,85,0.00,,,0.00,WUHU21623XXSP,2013-03-15 11:07:00,
2013-03-15 06:12:00,32.2,28.2,29.99,North,0,0.0,0.0,85,0.00,,,0.00,WUHU21623XXSP,2013-03-15 11:12:00,
2013-03-15 06:17:00,32.4,28.4,29.99,North,0,0.0,0.0,85,0.00,,,0.00,WUHU21623XXSP,2013-03-15 11:17:00,
2013-03-15 06:22:00,32.4,28.7,29.99,North,0,0.0,0.0,86,0.00,,,0.00,WUHU21623XXSP,2013-03-15 11:22:00,
2013-03-15 06:27:00,32.4,28.7,30.00,North,0,0.0,0.0,86,0.00,,,0.00,WUHU21623XXSP,2013-03-15 11:27:00,
2013-03-15 06:32:00,32.4,28.7,30.00,North,0,0.0,0.0,86,0.00,,,0.00,WUHU21623XXSP,2013-03-15 11:32:00,
2013-03-15 06:37:00,32.4,28.7,30.00,North,0,0.0,0.0,86,0.00,,,0.00,WUHU21623XXSP,2013-03-15 11:37:00,
2013-03-15 06:42:00,32.4,28.4,30.00,North,0,0.0,0.0,85,0.00,,,0.00,WUHU21623XXSP,2013-03-15 11:42:00,
2013-03-15 06:47:00,32.2,28.2,30.00,North,0,0.0,0.0,85,0.00,,,0.00,WUHU21623XXSP,2013-03-15 11:47:00,
2013-03-15 06:52:00,32.4,28.4,29.99,North,0,0.0,0.0,85,0.00,,,0.00,WUHU21623XXSP,2013-03-15 11:52:00,
2013-03-15 06:57:00,32.2,28.2,29.99,North,0,0.0,0.0,85,0.00,,,0.00,WUHU21623XXSP,2013-03-15 11:57:00,
2013-03-15 07:02:00,32.2,28.2,29.99,North,0,0.0,0.0,85,0.00,,,0.00,WUHU21623XXSP,2013-03-15 12:02:00,
2013-03-15 07:07:00,32.2,28.5,29.99,North,0,0.0,0.0,86,0.00,,,0.00,WUHU21623XXSP,2013-03-15 12:07:00,
2013-03-15 07:12:00,32.2,28.5,29.99,North,0,0.0,0.0,86,0.00,,,0.00,WUHU21623XXSP,2013-03-15 12:12:00,
2013-03-15 07:17:00,32.2,28.5,29.99,North,0,0.0,0.0,86,0.00,,,0.00,WUHU21623XXSP,2013-03-15 12:17:00,
2013-03-15 07:22:00,32.4,28.7,29.99,North,0,0.0,0.0,86,0.00,,,0.00,WUHU21623XXSP,2013-03-15 12:22:00,
2013-03-15 07:27:00,32.4,28.7,29.99,North,0,0.0,0.0,86,0.00,,,0.00,WUHU21623XXSP,2013-03-15 12:27:00,
2013-03-15 07:32:00,32.5,28.8,29.99,North,0,0.0,0.0,86,0.00,,,0.00,WUHU21623XXSP,2013-03-15 12:32:00,
2013-03-15 07:37:00,32.5,29.1,29.99,North,0,0.0,0.0,87,0.00,,,0.00,WUHU21623XXSP,2013-03-15 12:37:00,
2013-03-15 07:42:00,32.7,29.3,29.99,North,0,0.0,0.0,87,0.00,,,0.00,WUHU21623XXSP,2013-03-15 12:42:00,
2013-03-15 07:47:00,32.9,29.4,29.99,North,0,0.0,0.0,87,0.00,,,0.00,WUHU21623XXSP,2013-03-15 12:47:00,
2013-03-15 07:52:00,33.1,29.6,29.99,North,0,0.0,0.0,87,0.00,,,0.00,WUHU21623XXSP,2013-03-15 12:52:00,
2013-03-15 07:57:00,33.4,29.8,29.98,North,0,0.0,0.0,87,0.00,,,0.00,WUHU21623XXSP,2013-03-15 12:57:00,
2013-03-15 08:02:00,33.6,30.1,29.99,North,0,0.0,0.0,87,0.00,,,0.00,WUHU21623XXSP,2013-03-15 13:02:00,
2013-03-15 08:07:00,34.0,30.4,29.99,North,0,0.0,0.0,87,0.00,,,0.00,WUHU21623XXSP,2013-03-15 13:07:00,
2013-03-15 08:12:00,34.3,30.8,29.99,North,0,0.0,0.0,87,0.00,,,0.00,WUHU21623XXSP,2013-03-15 13:12:00,
2013-03-15 08:17:00,34.7,30.8,29.98,North,0,0.0,0.0,87,0.00,,,0.00,WUHU21623XXSP,2013-03-15 13:17:00,
2013-03-15 08:22:00,35.2,31.7,29.98,North,0,0.0,0.0,87,0.00,,,0.00,WUHU21623XXSP,2013-03-15 13:22:00,
2013-03-15 08:27:00,35.4,31.9,29.98,North,0,0.0,0.0,87,0.00,,,0.00,WUHU21623XXSP,2013-03-15 13:27:00,
2013-03-15 08:32:00,35.8,32.2,29.98,North,0,0.0,0.0,87,0.00,,,0.00,WUHU21623XXSP,2013-03-15 13:32:00,
2013-03-15 08:37:00,36.3,32.8,29.98,North,0,0.0,0.0,87,0.00,,,0.00,WUHU21623XXSP,2013-03-15 13:37:00,
2013-03-15 08:42:00,37.0,33.1,29.98,North,0,0.0,0.0,87,0.00,,,0.00,WUHU21623XXSP,2013-03-15 13:42:00,
2013-03-15 08:47:00,37.4,33.8,29.98,North,0,0.0,0.0,87,0.00,,,0.00,WUHU21623XXSP,2013-03-15 13:47:00,
2013-03-15 08:52:00,38.5,34.6,29.98,North,0,0.0,0.0,87,0.00,,,0.00,WUHU21623XXSP,2013-03-15 13:52:00,
2013-03-15 08:57:00,39.4,35.5,29.98,North,0,0.0,0.0,87,0.00,,,0.00,WUHU21623XXSP,2013-03-15 13:57:00,
2013-03-15 09:02:00,40.5,36.6,29.98,North,0,0.0,0.0,88,0.00,,,0.00,WUHU21623XXSP,2013-03-15 14:02:00,
2013-03-15 09:08:00,41.5,37.9,29.98,North,0,0.0,0.0,87,0.00,,,0.00,WUHU21623XXSP,2013-03-15 14:08:00,
2013-03-15 09:13:00,42.4,38.8,29.97,North,0,0.0,0.0,87,0.00,,,0.00,WUHU21623XXSP,2013-03-15 14:13:00,
2013-03-15 09:18:00,43.3,39.7,29.97,North,0,0.0,0.0,87,0.00,,,0.00,WUHU21623XXSP,2013-03-15 14:18:00,
2013-03-15 09:23:00,44.4,40.5,29.97,North,0,0.0,0.0,86,0.00,,,0.00,WUHU21623XXSP,2013-03-15 14:23:00,
2013-03-15 09:28:00,45.3,41.4,29.97,North,0,0.0,0.0,86,0.00,,,0.00,WUHU21623XXSP,2013-03-15 14:28:00,
2013-03-15 09:33:00,46.2,42.3,29.97,North,0,0.0,0.0,86,0.00,,,0.00,WUHU21623XXSP,2013-03-15 14:33:00,
2013-03-15 09:38:00,47.3,42.7,29.96,North,0,0.0,0.0,84,0.00,,,0.00,WUHU21623XXSP,2013-03-15 14:38:00,
2013-03-15 09:43:00,48.0,42.9,29.96,North,0,0.0,0.0,84,0.00,,,0.00,WUHU21623XXSP,2013-03-15 14:43:00,
2013-03-15 09:48:00,48.6,43.6,29.96,North,0,0.0,0.0,83,0.00,,,0.00,WUHU21623XXSP,2013-03-15 14:48:00,
2013-03-15 09:53:00,49.5,43.8,29.96,North,0,0.0,0.0,82,0.00,,,0.00,WUHU21623XXSP,2013-03-15 14:53:00,
2013-03-15 09:58:00,50.2,44.5,29.96,North,0,0.0,0.0,82,0.00,,,0.00,WUHU21623XXSP,2013-03-15 14:58:00,
2013-03-15 10:03:00,50.9,44.9,29.96,North,0,0.0,0.0,81,0.00,,,0.00,WUHU21623XXSP,2013-03-15 15:03:00,
2013-03-15 10:08:00,52.3,46.4,29.96,North,0,0.0,0.0,80,0.00,,,0.00,WUHU21623XXSP,2013-03-15 15:08:00,
2013-03-15 10:13:00,53.4,46.6,29.96,North,0,0.0,0.0,78,0.00,,,0.00,WUHU21623XXSP,2013-03-15 15:13:00,
2013-03-15 10:18:00,54.7,47.2,29.96,North,0,0.0,0.0,76,0.00,,,0.00,WUHU21623XXSP,2013-03-15 15:18:00,
2013-03-15 10:23:00,55.2,47.4,29.96,North,0,0.0,0.0,75,0.00,,,0.00,WUHU21623XXSP,2013-03-15 15:23:00,
2013-03-15 10:28:00,55.9,47.4,29.95,North,0,0.0,0.0,73,0.00,,,0.00,WUHU21623XXSP,2013-03-15 15:28:00,
2013-03-15 10:33:00,57.0,47.7,29.95,North,0,0.0,0.0,72,0.00,,,0.00,WUHU21623XXSP,2013-03-15 15:33:00,
2013-03-15 10:39:00,57.7,48.4,29.95,North,0,0.0,0.0,71,0.00,,,0.00,WUHU21623XXSP,2013-03-15 15:39:00,
2013-03-15 10:44:00,58.6,48.5,29.95,North,0,0.0,0.0,69,0.00,,,0.00,WUHU21623XXSP,2013-03-15 15:44:00,
2013-03-15 10:49:00,59.5,48.6,29.94,North,0,0.0,0.0,67,0.00,,,0.00,WUHU21623XXSP,2013-03-15 15:49:00,
2013-03-15 10:54:00,60.4,48.7,29.94,North,0,0.0,0.0,66,0.00,,,0.00,WUHU21623XXSP,2013-03-15 15:54:00,
2013-03-15 10:59:00,61.0,48.8,29.94,North,0,0.0,0.0,64,0.00,,,0.00,WUHU21623XXSP,2013-03-15 15:59:00,
2013-03-15 11:04:00,62.2,49.0,29.94,North,0,0.0,0.0,62,0.00,,,0.00,WUHU21623XXSP,2013-03-15 16:04:00,
2013-03-15 11:09:00,62.8,49.1,29.94,North,0,0.0,0.0,61,0.00,,,0.00,WUHU21623XXSP,2013-03-15 16:09:00,
2013-03-15 11:14:00,63.3,49.2,29.94,North,0,0.0,0.0,60,0.00,,,0.00,WUHU21623XXSP,2013-03-15 16:14:00,
2013-03-15 11:19:00,64.2,48.9,29.94,North,0,0.0,0.0,57,0.00,,,0.00,WUHU21623XXSP,2013-03-15 16:19:00,
2013-03-15 11:24:00,64.8,49.1,29.94,North,0,0.0,0.0,57,0.00,,,0.00,WUHU21623XXSP,2013-03-15 16:24:00,
2013-03-15 11:29:00,65.5,48.3,29.93,North,0,0.0,0.0,54,0.00,,,0.00,WUHU21623XXSP,2013-03-15 16:29:00,
2013-03-15 11:34:00,66.0,48.4,29.93,North,0,0.0,0.0,53,0.00,,,0.00,WUHU21623XXSP,2013-03-15 16:34:00,
2013-03-15 11:39:00,66.6,48.4,29.93,North,0,0.0,0.0,52,0.00,,,0.00,WUHU21623XXSP,2013-03-15 16:39:00,
2013-03-15 11:44:00,67.1,48.4,29.92,North,0,0.0,0.0,51,0.00,,,0.00,WUHU21623XXSP,2013-03-15 16:44:00,
2013-03-15 11:49:00,67.8,47.4,29.92,North,0,0.0,0.0,48,0.00,,,0.00,WUHU21623XXSP,2013-03-15 16:49:00,
2013-03-15 11:54:00,67.8,47.4,29.91,North,0,0.0,0.0,48,0.00,,,0.00,WUHU21623XXSP,2013-03-15 16:54:00,
2013-03-15 11:59:00,68.7,47.9,29.91,North,0,0.0,0.0,48,0.00,,,0.00,WUHU21623XXSP,2013-03-15 16:59:00,
2013-03-15 12:04:00,69.3,48.1,29.90,North,0,0.0,0.0,47,0.00,,,0.00,WUHU21623XXSP,2013-03-15 17:04:00,
2013-03-15 12:09:00,69.6,48.4,29.90,North,0,0.0,0.0,47,0.00,,,0.00,WUHU21623XXSP,2013-03-15 17:09:00,
2013-03-15 12:14:00,70.3,47.9,29.89,North,0,0.0,0.0,45,0.00,,,0.00,WUHU21623XXSP,2013-03-15 17:14:00,
2013-03-15 12:19:00,70.5,48.0,29.89,North,0,0.0,0.0,45,0.00,,,0.00,WUHU21623XXSP,2013-03-15 17:19:00,
2013-03-15 12:24:00,70.7,48.2,29.89,North,0,0.0,0.0,45,0.00,,,0.00,WUHU21623XXSP,2013-03-15 17:24:00,
2013-03-15 12:29:00,71.4,48.8,29.89,North,0,0.0,0.0,45,0.00,,,0.00,WUHU21623XXSP,2013-03-15 17:29:00,
2013-03-15 12:34:00,71.8,49.2,29.89,North,0,0.0,0.0,45,0.00,,,0.00,WUHU21623XXSP,2013-03-15 17:34:00,
2013-03-15 12:39:00,72.3,49.1,29.89,North,0,0.0,0.0,44,0.00,,,0.00,WUHU21623XXSP,2013-03-15 17:39:00,
2013-03-15 12:44:00,72.5,49.2,29.89,North,0,0.0,0.0,44,0.00,,,0.00,WUHU21623XXSP,2013-03-15 17:44:00,
2013-03-15 12:50:00,72.7,49.4,29.88,North,0,0.0,0.0,44,0.00,,,0.00,WUHU21623XXSP,2013-03-15 17:50:00,
2013-03-15 12:55:00,73.2,49.9,29.87,North,0,0.0,0.0,44,0.00,,,0.00,WUHU21623XXSP,2013-03-15 17:55:00,
2013-03-15 13:00:00,73.8,50.4,29.87,North,0,0.0,0.0,44,0.00,,,0.00,WUHU21623XXSP,2013-03-15 18:00:00,
2013-03-15 13:05:00,74.1,50.7,29.87,North,0,0.0,0.0,44,0.00,,,0.00,WUHU21623XXSP,2013-03-15 18:05:00,
2013-03-15 13:10:00,74.8,50.8,29.86,North,0,0.0,0.0,43,0.00,,,0.00,WUHU21623XXSP,2013-03-15 18:10:00,
2013-03-15 13:15:00,74.8,50.8,29.86,North,0,0.0,0.0,43,0.00,,,0.00,WUHU21623XXSP,2013-03-15 18:15:00,
2013-03-15 13:20:00,74.5,49.8,29.86,North,0,0.0,0.0,42,0.00,,,0.00,WUHU21623XXSP,2013-03-15 18:20:00,
2013-03-15 13:25:00,74.3,50.3,29.86,North,0,0.0,0.0,43,0.00,,,0.00,WUHU21623XXSP,2013-03-15 18:25:00,
2013-03-15 13:30:00,74.3,50.3,29.86,North,0,0.0,0.0,43,0.00,,,0.00,WUHU21623XXSP,2013-03-15 18:30:00,
2013-03-15 13:35:00,74.3,50.3,29.85,North,0,0.0,0.0,42,0.00,,,0.00,WUHU21623XXSP,2013-03-15 18:35:00,
2013-03-15 13:40:00,73.9,49.9,29.84,North,0,0.0,0.0,43,0.00,,,0.00,WUHU21623XXSP,2013-03-15 18:40:00,
2013-03-15 13:45:00,73.8,49.8,29.84,North,0,0.0,0.0,43,0.00,,,0.00,WUHU21623XXSP,2013-03-15 18:45:00,
2013-03-15 13:50:00,74.5,50.4,29.83,North,0,0.0,0.0,43,0.00,,,0.00,WUHU21623XXSP,2013-03-15 18:50:00,
2013-03-15 13:55:00,75.0,50.9,29.82,North,0,0.0,0.0,43,0.00,,,0.00,WUHU21623XXSP,2013-03-15 18:55:00,
2013-03-15 14:00:00,75.7,51.0,29.82,North,0,0.0,0.0,42,0.00,,,0.00,WUHU21623XXSP,2013-03-15 19:00:00,
2013-03-15 14:05:00,75.7,51.0,29.82,North,0,0.0,0.0,42,0.00,,,0.00,WUHU21623XXSP,2013-03-15 19:05:00,
2013-03-15 14:10:00,75.7,51.0,29.81,North,0,0.0,0.0,42,0.00,,,0.00,WUHU21623XXSP,2013-03-15 19:10:00,
2013-03-15 14:15:00,75.6,50.8,29.81,North,0,0.0,0.0,42,0.00,,,0.00,WUHU21623XXSP,2013-03-15 19:15:00,
2013-03-15 14:20:00,75.7,51.0,29.81,North,0,0.0,0.0,42,0.00,,,0.00,WUHU21623XXSP,2013-03-15 19:20:00,
2013-03-15 14:25:00,75.9,51.2,29.80,North,0,0.0,0.0,42,0.00,,,0.00,WUHU21623XXSP,2013-03-15 19:25:00,
2013-03-15 14:30:00,76.3,51.5,29.79,North,0,0.0,0.0,42,0.00,,,0.00,WUHU21623XXSP,2013-03-15 19:30:00,
2013-03-15 14:35:00,76.6,51.2,29.78,North,0,0.0,0.0,41,0.00,,,0.00,WUHU21623XXSP,2013-03-15 19:35:00,
2013-03-15 14:40:00,76.6,51.2,29.78,North,0,0.0,0.0,41,0.00,,,0.00,WUHU21623XXSP,2013-03-15 19:40:00,
2013-03-15 14:45:00,76.6,51.2,29.78,North,0,0.0,0.0,41,0.00,,,0.00,WUHU21623XXSP,2013-03-15 19:45:00,
2013-03-15 14:50:00,76.6,51.2,29.77,North,0,0.0,0.0,41,0.00,,,0.00,WUHU21623XXSP,2013-03-15 19:50:00,
2013-03-15 14:55:00,76.8,51.4,29.76,North,0,0.0,0.0,41,0.00,,,0.00,WUHU21623XXSP,2013-03-15 19:55:00,
2013-03-15 15:00:00,76.8,51.4,29.76,North,0,0.0,0.0,41,0.00,,,0.00,WUHU21623XXSP,2013-03-15 20:00:00,
2013-03-15 15:05:00,76.6,51.2,29.76,North,0,0.0,0.0,41,0.00,,,0.00,WUHU21623XXSP,2013-03-15 20:05:00,
2013-03-15 15:10:00,76.6,51.2,29.75,North,0,0.0,0.0,40,0.00,,,0.00,WUHU21623XXSP,2013-03-15 20:10:00,
2013-03-15 15:15:00,76.5,51.0,29.75,North,0,0.0,0.0,41,0.00,,,0.00,WUHU21623XXSP,2013-03-15 20:15:00,
2013-03-15 15:20:00,76.6,50.4,29.75,North,0,0.0,0.0,40,0.00,,,0.00,WUHU21623XXSP,2013-03-15 20:20:00,
2013-03-15 15:25:00,76.6,51.2,29.75,North,0,0.0,0.0,41,0.00,,,0.00,WUHU21623XXSP,2013-03-15 20:25:00,
2013-03-15 15:30:00,77.2,51.4,29.75,North,0,0.0,0.0,41,0.00,,,0.00,WUHU21623XXSP,2013-03-15 20:30:00,
2013-03-15 15:35:00,77.5,50.6,29.74,North,0,0.0,0.0,39,0.00,,,0.00,WUHU21623XXSP,2013-03-15 20:35:00,
2013-03-15 15:40:00,77.5,49.9,29.74,North,0,0.0,0.0,38,0.00,,,0.00,WUHU21623XXSP,2013-03-15 20:40:00,
2013-03-15 15:45:00,77.4,50.5,29.74,North,0,0.0,0.0,39,0.00,,,0.00,WUHU21623XXSP,2013-03-15 20:45:00,
2013-03-15 15:50:00,77.2,50.3,29.74,North,0,0.0,0.0,39,0.00,,,0.00,WUHU21623XXSP,2013-03-15 20:50:00,
2013-03-15 15:55:00,77.2,50.3,29.74,North,0,0.0,0.0,39,0.00,,,0.00,WUHU21623XXSP,2013-03-15 20:55:00,
2013-03-15 16:00:00,77.0,50.1,29.73,North,0,0.0,0.0,39,0.00,,,0.00,WUHU21623XXSP,2013-03-15 21:00:00,
2013-03-15 16:05:00,76.8,50.0,29.73,North,0,0.0,0.0,39,0.00,,,0.00,WUHU21623XXSP,2013-03-15 21:05:00,
2013-03-15 16:10:00,76.8,50.7,29.73,North,0,0.0,0.0,40,0.00,,,0.00,WUHU21623XXSP,2013-03-15 21:10:00,
2013-03-15 16:15:00,76.8,50.7,29.73,North,0,0.0,0.0,40,0.00,,,0.00,WUHU21623XXSP,2013-03-15 21:15:00,
2013-03-15 16:20:00,76.8,50.0,29.73,North,0,0.0,0.0,39,0.00,,,0.00,WUHU21623XXSP,2013-03-15 21:20:00,
2013-03-15 16:25:00,76.6,49.8,29.73,North,0,0.0,0.0,39,0.00,,,0.00,WUHU21623XXSP,2013-03-15 21:25:00,
2013-03-15 16:30:00,76.8,50.6,29.73,North,0,0.0,0.0,40,0.00,,,0.00,WUHU21623XXSP,2013-03-15 21:30:00,
2013-03-15 16:35:00,77.2,50.3,29.73,North,0,0.0,0.0,39,0.00,,,0.00,WUHU21623XXSP,2013-03-15 21:35:00,
2013-03-15 16:41:00,77.2,50.3,29.72,North,0,0.0,0.0,39,0.00,,,0.00,WUHU21623XXSP,2013-03-15 21:41:00,
2013-03-15 16:46:00,77.2,49.5,29.72,North,0,0.0,0.0,38,0.00,,,0.00,WUHU21623XXSP,2013-03-15 21:46:00,
2013-03-15 16:51:00,77.2,49.5,29.72,North,0,0.0,0.0,38,0.00,,,0.00,WUHU21623XXSP,2013-03-15 21:51:00,
2013-03-15 16:56:00,77.4,50.5,29.72,North,0,0.0,0.0,39,0.00,,,0.00,WUHU21623XXSP,2013-03-15 21:56:00,
2013-03-15 17:01:00,77.4,50.5,29.72,North,0,0.0,0.0,39,0.00,,,0.00,WUHU21623XXSP,2013-03-15 22:01:00,
2013-03-15 17:06:00,77.0,50.1,29.71,North,0,0.0,0.0,39,0.00,,,0.00,WUHU21623XXSP,2013-03-15 22:06:00,
2013-03-15 17:11:00,76.8,50.0,29.71,North,0,0.0,0.0,39,0.00,,,0.00,WUHU21623XXSP,2013-03-15 22:11:00,
2013-03-15 17:16:00,76.1,49.3,29.71,North,0,0.0,0.0,39,0.00,,,0.00,WUHU21623XXSP,2013-03-15 22:16:00,
2013-03-15 17:21:00,75.7,49.8,29.71,North,0,0.0,0.0,40,0.00,,,0.00,WUHU21623XXSP,2013-03-15 22:21:00,
2013-03-15 17:26:00,75.6,49.6,29.71,North,0,0.0,0.0,40,0.00,,,0.00,WUHU21623XXSP,2013-03-15 22:26:00,
2013-03-15 17:31:00,75.2,49.3,29.70,North,0,0.0,0.0,40,0.00,,,0.00,WUHU21623XXSP,2013-03-15 22:31:00,
2013-03-15 17:36:00,75.0,49.1,29.70,North,0,0.0,0.0,41,0.00,,,0.00,WUHU21623XXSP,2013-03-15 22:36:00,
2013-03-15 17:41:00,75.0,49.7,29.71,North,0,0.0,0.0,41,0.00,,,0.00,WUHU21623XXSP,2013-03-15 22:41:00,
2013-03-15 17:46:00,74.8,49.0,29.70,North,0,0.0,0.0,41,0.00,,,0.00,WUHU21623XXSP,2013-03-15 22:46:00,
2013-03-15 17:51:00,74.8,49.0,29.70,North,0,0.0,0.0,40,0.00,,,0.00,WUHU21623XXSP,2013-03-15 22:51:00,
2013-03-15 17:56:00,74.5,48.6,29.70,North,0,0.0,0.0,40,0.00,,,0.00,WUHU21623XXSP,2013-03-15 22:56:00,
2013-03-15 18:02:00,74.5,48.6,29.70,North,0,0.0,0.0,40,0.00,,,0.00,WUHU21623XXSP,2013-03-15 23:02:00,
2013-03-15 18:07:00,74.5,48.6,29.70,North,0,0.0,0.0,40,0.00,,,0.00,WUHU21623XXSP,2013-03-15 23:07:00,
2013-03-15 18:12:00,74.1,48.3,29.70,North,0,0.0,0.0,40,0.00,,,0.00,WUHU21623XXSP,2013-03-15 23:12:00,
2013-03-15 18:17:00,74.3,48.5,29.70,North,0,0.0,0.0,40,0.00,,,0.00,WUHU21623XXSP,2013-03-15 23:17:00,
2013-03-15 18:22:00,74.3,48.5,29.70,North,0,0.0,0.0,40,0.00,,,0.00,WUHU21623XXSP,2013-03-15 23:22:00,
2013-03-15 18:27:00,74.5,48.5,29.69,North,0,0.0,0.0,40,0.00,,,0.00,WUHU21623XXSP,2013-03-15 23:27:00,
2013-03-15 18:32:00,74.5,48.6,29.69,North,0,0.0,0.0,40,0.00,,,0.00,WUHU21623XXSP,2013-03-15 23:32:00,
2013-03-15 18:37:00,74.5,48.6,29.69,North,0,0.0,0.0,40,0.00,,,0.00,WUHU21623XXSP,2013-03-15 23:37:00,
2013-03-15 18:42:00,74.5,48.6,29.69,North,0,0.0,0.0,40,0.00,,,0.00,WUHU21623XXSP,2013-03-15 23:42:00,
2013-03-15 18:47:00,74.1,48.9,29.69,North,0,0.0,0.0,41,0.00,,,0.00,WUHU21623XXSP,2013-03-15 23:47:00,
2013-03-15 18:52:00,73.8,48.7,29.69,North,0,0.0,0.0,41,0.00,,,0.00,WUHU21623XXSP,2013-03-15 23:52:00,
2013-03-15 18:57:00,73.6,48.4,29.69,North,0,0.0,0.0,41,0.00,,,0.00,WUHU21623XXSP,2013-03-15 23:57:00,
2013-03-15 19:02:00,73.0,47.9,29.69,North,0,0.0,0.0,41,0.00,,,0.00,WUHU21623XXSP,2013-03-16 00:02:00,
2013-03-15 19:07:00,72.5,48.0,29.69,North,0,0.0,0.0,42,0.00,,,0.00,WUHU21623XXSP,2013-03-16 00:07:00,
2013-03-15 19:12:00,72.3,47.9,29.69,North,0,0.0,0.0,42,0.00,,,0.00,WUHU21623XXSP,2013-03-16 00:12:00,
2013-03-15 19:17:00,72.0,47.6,29.69,North,0,0.0,0.0,42,0.00,,,0.00,WUHU21623XXSP,2013-03-16 00:17:00,
2013-03-15 19:22:00,71.4,47.7,29.70,North,0,0.0,0.0,43,0.00,,,0.00,WUHU21623XXSP,2013-03-16 00:22:00,
2013-03-15 19:27:00,71.2,47.5,29.70,North,0,0.0,0.0,43,0.00,,,0.00,WUHU21623XXSP,2013-03-16 00:27:00,
2013-03-15 19:32:00,71.2,47.5,29.70,North,0,0.0,0.0,43,0.00,,,0.00,WUHU21623XXSP,2013-03-16 00:32:00,
2013-03-15 19:37:00,70.7,47.0,29.70,North,0,0.0,0.0,43,0.00,,,0.00,WUHU21623XXSP,2013-03-16 00:37:00,
2013-03-15 19:42:00,70.5,46.9,29.69,North,0,0.0,0.0,43,0.00,,,0.00,WUHU21623XXSP,2013-03-16 00:42:00,
2013-03-15 19:47:00,70.2,47.1,29.69,North,0,0.0,0.0,44,0.00,,,0.00,WUHU21623XXSP,2013-03-16 00:47:00,
2013-03-15 19:52:00,69.6,46.8,29.69,North,0,0.0,0.0,44,0.00,,,0.00,WUHU21623XXSP,2013-03-16 00:52:00,
2013-03-15 19:57:00,69.3,46.3,29.69,North,0,0.0,0.0,44,0.00,,,0.00,WUHU21623XXSP,2013-03-16 00:57:00,
2013-03-15 20:02:00,68.9,46.6,29.70,North,0,0.0,0.0,45,0.00,,,0.00,WUHU21623XXSP,2013-03-16 01:02:00,
2013-03-15 20:07:00,68.4,46.1,29.70,North,0,0.0,0.0,45,0.00,,,0.00,WUHU21623XXSP,2013-03-16 01:07:00,
2013-03-15 20:12:00,67.8,45.6,29.69,North,0,0.0,0.0,45,0.00,,,0.00,WUHU21623XXSP,2013-03-16 01:12:00,
2013-03-15 20:17:00,67.3,45.7,29.69,North,0,0.0,0.0,46,0.00,,,0.00,WUHU21623XXSP,2013-03-16 01:17:00,
2013-03-15 20:22:00,66.9,45.4,29.70,North,0,0.0,0.0,46,0.00,,,0.00,WUHU21623XXSP,2013-03-16 01:22:00,
2013-03-15 20:27:00,66.6,45.7,29.70,North,0,0.0,0.0,47,0.00,,,0.00,WUHU21623XXSP,2013-03-16 01:27:00,
2013-03-15 20:32:00,66.0,45.2,29.70,North,0,0.0,0.0,47,0.00,,,0.00,WUHU21623XXSP,2013-03-16 01:32:00,
2013-03-15 20:37:00,65.8,45.6,29.69,North,0,0.0,0.0,48,0.00,,,0.00,WUHU21623XXSP,2013-03-16 01:37:00,
2013-03-15 20:42:00,65.5,45.4,29.69,North,0,0.0,0.0,48,0.00,,,0.00,WUHU21623XXSP,2013-03-16 01:42:00,
2013-03-15 20:47:00,64.9,45.3,29.69,North,0,0.0,0.0,49,0.00,,,0.00,WUHU21623XXSP,2013-03-16 01:47:00,
2013-03-15 20:52:00,64.6,44.9,29.69,North,0,0.0,0.0,49,0.00,,,0.00,WUHU21623XXSP,2013-03-16 01:52:00,
2013-03-15 20:57:00,64.2,44.7,29.70,North,0,0.0,0.0,49,0.00,,,0.00,WUHU21623XXSP,2013-03-16 01:57:00,
2013-03-15 21:02:00,63.9,44.8,29.70,North,0,0.0,0.0,50,0.00,,,0.00,WUHU21623XXSP,2013-03-16 02:02:00,
2013-03-15 21:07:00,63.5,45.2,29.70,North,0,0.0,0.0,51,0.00,,,0.00,WUHU21623XXSP,2013-03-16 02:07:00,
2013-03-15 21:12:00,63.1,44.7,29.70,North,0,0.0,0.0,51,0.00,,,0.00,WUHU21623XXSP,2013-03-16 02:12:00,
2013-03-15 21:17:00,62.4,44.8,29.70,North,0,0.0,0.0,52,0.00,,,0.00,WUHU21623XXSP,2013-03-16 02:17:00,
2013-03-15 21:22:00,62.2,44.3,29.70,North,0,0.0,0.0,52,0.00,,,0.00,WUHU21623XXSP,2013-03-16 02:22:00,
2013-03-15 21:27:00,61.9,44.2,29.70,North,0,0.0,0.0,53,0.00,,,0.00,WUHU21623XXSP,2013-03-16 02:27:00,
2013-03-15 21:32:00,61.3,44.2,29.70,North,0,0.0,0.0,53,0.00,,,0.00,WUHU21623XXSP,2013-03-16 02:32:00,
2013-03-15 21:37:00,61.2,44.5,29.71,North,0,0.0,0.0,54,0.00,,,0.00,WUHU21623XXSP,2013-03-16 02:37:00,
2013-03-15 21:42:00,61.0,44.2,29.70,North,0,0.0,0.0,54,0.00,,,0.00,WUHU21623XXSP,2013-03-16 02:42:00,
2013-03-15 21:48:00,61.0,44.2,29.70,North,0,0.0,0.0,54,0.00,,,0.00,WUHU21623XXSP,2013-03-16 02:48:00,
2013-03-15 21:53:00,61.0,44.2,29.70,North,0,0.0,0.0,54,0.00,,,0.00,WUHU21623XXSP,2013-03-16 02:53:00,
2013-03-15 21:58:00,60.8,44.2,29.70,North,0,0.0,0.0,54,0.00,,,0.00,WUHU21623XXSP,2013-03-16 02:58:00,
2013-03-15 22:03:00,60.6,43.8,29.70,North,0,0.0,0.0,54,0.00,,,0.00,WUHU21623XXSP,2013-03-16 03:03:00,
2013-03-15 22:08:00,60.6,44.3,29.70,North,0,0.0,0.0,55,0.00,,,0.00,WUHU21623XXSP,2013-03-16 03:08:00,
2013-03-15 22:13:00,60.4,44.2,29.70,North,0,0.0,0.0,55,0.00,,,0.00,WUHU21623XXSP,2013-03-16 03:13:00,
2013-03-15 22:18:00,60.4,44.2,29.70,North,0,0.0,0.0,55,0.00,,,0.00,WUHU21623XXSP,2013-03-16 03:18:00,
2013-03-15 22:23:00,60.4,44.6,29.70,North,0,0.0,0.0,56,0.00,,,0.00,WUHU21623XXSP,2013-03-16 03:23:00,
2013-03-15 22:28:00,60.4,44.6,29.70,North,0,0.0,0.0,57,0.00,,,0.00,WUHU21623XXSP,2013-03-16 03:28:00,
2013-03-15 22:33:00,60.8,45.5,29.69,North,0,0.0,0.0,57,0.00,,,0.00,WUHU21623XXSP,2013-03-16 03:33:00,
2013-03-15 22:38:00,61.0,45.6,29.69,North,0,0.0,0.0,57,0.00,,,0.00,WUHU21623XXSP,2013-03-16 03:38:00,
2013-03-15 22:43:00,61.2,45.8,29.69,North,0,0.0,0.0,57,0.00,,,0.00,WUHU21623XXSP,2013-03-16 03:43:00,
2013-03-15 22:48:00,61.5,46.1,29.69,North,0,0.0,0.0,57,0.00,,,0.00,WUHU21623XXSP,2013-03-16 03:48:00,
2013-03-15 22:53:00,61.7,46.3,29.69,North,0,0.0,0.0,57,0.00,,,0.00,WUHU21623XXSP,2013-03-16 03:53:00,
2013-03-15 22:58:00,62.1,46.6,29.69,North,0,0.0,0.0,57,0.00,,,0.00,WUHU21623XXSP,2013-03-16 03:58:00,
2013-03-15 23:00:00,62.2,46.6,29.69,North,0,0.0,0.0,56,0.00,,,0.00,WUHU21623XXSP,2013-03-16 04:00:00,
2013-03-15 23:03:00,62.2,46.3,29.69,North,0,0.0,0.0,56,0.00,,,0.00,WUHU21623XXSP,2013-03-16 04:03:00,
2013-03-15 23:05:00,62.2,46.3,29.69,North,0,0.0,0.0,56,0.00,,,0.00,WUHU21623XXSP,2013-03-16 04:05:00,
2013-03-15 23:08:00,62.2,46.3,29.69,North,0,0.0,0.0,56,0.00,,,0.00,WUHU21623XXSP,2013-03-16 04:08:00,
2013-03-15 23:13:00,62.1,46.1,29.69,North,0,0.0,0.0,56,0.00,,,0.00,WUHU21623XXSP,2013-03-16 04:13:00,
2013-03-15 23:18:00,61.7,46.0,29.69,North,0,0.0,0.0,56,0.00,,,0.00,WUHU21623XXSP,2013-03-16 04:18:00,
2013-03-15 23:23:00,61.7,45.8,29.69,North,0,0.0,0.0,56,0.00,,,0.00,WUHU21623XXSP,2013-03-16 04:23:00,
2013-03-15 23:28:00,61.3,46.1,29.69,North,0,0.0,0.0,57,0.00,,,0.00,WUHU21623XXSP,2013-03-16 04:28:00,
2013-03-15 23:33:00,61.0,45.6,29.69,North,0,0.0,0.0,57,0.00,,,0.00,WUHU21623XXSP,2013-03-16 04:33:00,
2013-03-15 23:38:00,60.8,45.5,29.69,North,0,0.0,0.0,57,0.00,,,0.00,WUHU21623XXSP,2013-03-16 04:38:00,
2013-03-15 23:43:00,60.6,45.3,29.69,North,0,0.0,0.0,57,0.00,,,0.00,WUHU21623XXSP,2013-03-16 04:43:00,
2013-03-15 23:48:00,60.1,45.2,29.68,North,0,0.0,0.0,58,0.00,,,0.00,WUHU21623XXSP,2013-03-16 04:48:00,
2013-03-15 23:53:00,59.9,45.1,29.68,North,0,0.0,0.0,58,0.00,,,0.00,WUHU21623XXSP,2013-03-16 04:53:00,
2013-03-15 23:58:00,59.7,44.9,29.68,North,0,0.0,0.0,58,0.00,,,0.00,WUHU21623XXSP,2013-03-16 04:58:00,